Wind_Speed
3 3 3 3 4 4 4 4 3 3 2 2 2 2 2 2 2 2 3 3 3 3 3 3 3 2 2 2 2 3 4 4 5 5 5 5 6 6 6 5 5 5 5
6 4 5 5 5 4 4 5 4 4 4 3 3 3 3 3 3 3 3 3 4 4 4 4 3 3 3 3 3 4 4 4 5 5 5 6 6 6 6 6 6 5 5
7 6 7 6 6 6 5 5 5 5 5 5 4 4 4 4 4 4 4 4 4 4 4 5 5 4 4 4 4 5 5 5 5 5 6 6 6 6 6 6 6 7 7
8 8 9 8 8 7 7 6 6 6 6 6 5 5 5 5 5 5 5 5 4 5 5 6 6 5 5 5 5 6 6 6 6 6 6 6 7 7 7 7 7 7 7
9 10 10 10 9 9 9 8 8 8 8 8 7 7 7 7 7 6 6 6 6 6 6 7 7 7 7 7 7 7 7 7 7 7 7 7 8 8 7 7 7 7 7
10 10 11 11 11 11 10 10 10 9 9 9 9 9 9 9 8 8 7 8 7 7 7 8 9 8 8 8 9 9 8 8 8 8 9 9 9 9 8 8 8 8 8
11 11 12 12 13 13 12 12 12 11 10 10 10 10 10 10 9 9 9 9 9 9 9 9 10 10 10 10 10 10 9 9 10 10 10 9 9 9 9 9 9 9 8
12 12 12 13 13 13 13 13 12 12 11 11 12 12 12 11 11 10 10 10 10 10 10 11 12 12 12 12 12 11 11 11 11 11 10 10 10 11 10 10 10 10 10
14 13 13 13 13 14 13 13 13 13 13 13 14 14 13 13 13 12 12 11 11 12 12 13 14 14 13 13 14 13 13 13 13 13 12 12 12 12 12 12 11 12 11
15 15 15 15 15 15 15 15 15 15 15 15 15 16 15 14 14 14 14 14 14 14 15 15 14 15 16 16 16 15 15 15 16 16 15 14 14 14 14 13 13 14 14
15 16 16 16 16 16 16 16 16 16 16 17 17 17 17 16 16 16 16 15 15 15 15 16 16 17 17 17 17 17 17 17 17 17 17 16 16 16 15 15 15 16 16
15 16 16 16 17 17 17 17 17 17 17 17 17 18 18 17 17 18 17 17 17 17 17 17 18 18 18 18 19 19 18 19 18 18 18 17 17 17 17 16 16 17 16
16 16 16 16 17 17 18 18 18 18 18 17 17 17 18 18 18 18 18 18 19 19 19 19 20 20 20 20 21 21 21 21 20 20 19 18 18 18 18 18 18 18 18
17 16 16 17 17 18 18 19 19 19 19 18 18 19 19 19 18 18 19 19 20 21 21 21 22 21 21 21 22 21 21 21 20 20 19 19 19 19 19 20 20 20 20
18 18 18 18 19 20 20 20 20 19 19 19 19 20 20 20 20 20 20 20 21 22 22 23 23 23 23 23 23 23 23 22 22 21 20 20 20 20 20 21 22 22 22
20 20 20 20 20 20 21 21 21 21 21 20 21 21 21 21 21 21 21 21 22 22 23 23 23 23 24 24 24 24 24 23 23 22 21 21 21 21 21 22 23 23 23
22 22 22 22 22 22 21 22 22 23 23 22 22 22 22 23 23 23 23 23 23 23 23 24 23 24 23 24 24 25 25 24 24 23 23 23 23 24 24 23 24 24 23
24 24 24 24 23 23 22 23 24 24 25 24 23 24 24 24 24 24 24 24 24 25 25 25 25 25 25 25 25 25 25 25 25 25 25 24 24 24 25 25 24 23 24
26 26 25 25 24 24 24 24 25 25 26 25 25 25 25 25 25 25 25 25 26 26 26 26 26 27 27 27 26 26 25 25 25 25 25 25 25 25 25 25 25 25 25
27 27 26 25 25 25 25 26 26 26 26 26 26 26 25 24 24 25 25 26 26 27 27 27 26 27 27 27 26 26 26 26 26 26 26 25 25 26 26 26 26 26 25
27 27 26 26 26 26 26 26 27 26 27 27 26 26 25 25 25 26 26 27 27 27 28 28 27 26 26 26 26 27 27 27 27 26 25 25 26 26 27 26 26 26 26
26 26 26 26 27 27 27 27 27 27 27 27 27 27 27 28 27 27 28 28 28 27 27 28 27 26 26 26 26 27 27 27 27 27 27 27 26 26 26 26 25 26 26
26 26 27 28 28 28 28 28 28 28 28 28 28 28 28 29 28 28 29 29 28 28 28 28 27 27 28 28 27 27 27 27 26 26 27 28 27 27 27 27 26 26 26
27 27 27 28 29 29 29 29 29 29 29 29 29 28 29 29 29 29 29 30 29 29 29 29 29 29 29 29 29 29 28 27 27 27 27 27 27 27 27 27 26 26 26
27 27 27 28 29 29 29 29 29 30 29 29 28 28 28 27 28 29 30 30 29 29 29 29 29 29 29 29 29 28 27 27 26 27 28 28 27 27 28 27 26 26 27
28 28 29 28 29 29 30 29 30 29 29 28 27 27 27 27 28 28 28 28 28 28 28 28 28 28 28 28 27 27 27 27 27 27 27 27 28 28 28 28 28 27 27
Wind_Direction
303 313 313 309 306 303 300 303 298 301 299 299 291 286 278 275 278 275 276 280 286 301 310 318 305 303 314 325 331 334 331 334 339 341 340 339 339 337 338 330 316 307 298
284 292 305 306 298 294 293 295 298 290 287 291 291 288 285 279 286 286 278 280 290 298 300 309 310 303 299 304 316 322 319 324 330 333 334 331 329 328 328 328 319 309 299
276 279 286 298 295 287 287 288 290 289 288 291 292 292 283 276 281 281 275 276 283 292 294 292 291 292 292 295 303 310 309 316 321 326 329 328 323 317 317 319 317 313 312
274 271 276 283 287 284 282 282 283 280 284 288 286 285 284 284 284 280 274 273 278 284 286 285 283 283 293 296 300 306 311 312 312 313 315 317 317 314 314 314 315 316 317
276 266 269 278 283 281 280 278 277 273 277 279 281 285 291 291 289 277 276 276 278 281 280 278 278 282 288 291 296 302 305 307 308 307 308 310 310 311 310 307 309 310 311
276 273 273 278 281 279 276 274 276 275 275 279 283 287 292 291 288 282 281 279 280 281 281 278 276 280 283 285 287 294 300 303 302 302 302 303 304 309 306 304 303 305 306
272 274 275 276 280 280 279 276 277 276 276 279 284 288 290 285 283 280 280 281 281 283 279 280 278 279 279 280 283 287 292 294 296 299 299 299 299 304 305 302 303 304 304
269 271 274 274 276 278 277 277 277 277 277 279 281 284 285 282 280 280 279 284 283 279 281 280 280 279 279 280 281 285 287 290 292 294 292 292 295 299 302 300 296 296 298
271 272 275 278 278 277 276 275 276 275 276 278 278 280 280 279 277 278 278 281 283 280 284 282 280 280 283 283 281 281 285 286 288 289 288 290 292 294 296 298 293 293 294
270 274 276 278 279 277 274 275 276 273 274 277 276 277 277 276 276 276 276 277 280 282 285 284 284 285 283 280 279 278 281 285 286 285 285 287 288 290 292 294 292 290 290
270 273 276 278 279 280 277 275 275 274 275 275 276 275 275 275 274 276 278 277 278 280 282 284 284 284 281 281 283 281 280 283 284 283 283 283 284 285 288 290 292 291 290
271 273 275 276 278 280 279 277 277 276 273 274 274 273 274 275 275 275 276 276 277 277 280 283 285 285 281 280 281 281 281 281 281 281 281 281 282 284 285 287 290 292 292
269 271 274 275 277 278 280 281 280 278 274 273 274 273 273 274 275 274 274 276 277 278 280 282 283 284 280 278 278 279 279 280 280 280 279 279 279 281 282 283 285 287 288
269 269 272 273 275 278 280 281 278 277 275 274 274 274 274 275 274 275 276 276 276 279 280 282 282 280 277 277 277 277 278 277 277 278 279 278 277 277 278 280 280 282 284
272 271 274 274 274 277 279 279 277 275 274 273 273 274 275 275 275 276 276 275 276 278 280 281 280 279 278 277 274 274 275 274 275 275 276 277 276 277 279 278 278 280 282
272 273 275 274 275 277 277 277 275 274 275 274 273 273 274 274 275 276 275 275 276 277 278 279 280 281 280 277 274 273 272 273 274 274 275 274 274 275 278 279 278 278 279
271 274 275 274 273 276 275 273 273 272 271 271 272 272 272 272 273 273 273 274 276 278 278 279 280 280 279 278 276 275 272 271 272 272 273 273 273 274 276 278 280 280 278
273 275 274 272 271 272 273 273 273 271 270 270 271 271 272 272 271 271 273 275 277 278 278 279 279 278 279 278 277 276 273 270 270 271 272 273 274 274 276 279 279 279 279
274 275 273 271 271 272 272 273 272 270 269 270 271 272 273 273 274 274 273 277 278 277 278 279 280 280 279 280 279 277 274 272 270 270 271 272 273 274 276 278 279 279 279
273 274 273 271 271 272 272 272 271 269 268 268 269 270 271 274 275 275 276 277 278 278 279 279 280 281 280 279 278 276 276 276 273 270 270 271 271 273 275 277 277 278 279
271 273 272 272 273 274 273 273 271 269 268 269 269 270 271 273 275 275 277 278 278 279 279 278 280 281 280 279 278 277 277 276 275 270 269 270 272 273 273 275 275 276 277
269 270 271 273 274 274 273 272 270 269 269 269 269 270 271 272 274 275 276 277 280 281 280 279 279 279 279 281 280 279 278 277 276 273 269 270 272 273 274 274 276 277 277
267 269 271 273 274 274 273 271 270 269 269 269 269 270 272 273 274 274 275 276 280 281 282 282 280 279 279 279 280 279 278 278 276 275 272 270 270 271 273 275 277 278 279
267 269 271 273 274 274 273 272 270 270 270 270 271 273 274 274 275 276 276 276 279 281 282 280 280 280 279 278 277 277 277 277 277 276 273 271 270 270 273 275 277 279 280
265 269 273 275 274 273 273 271 270 270 270 270 272 274 275 275 276 276 276 276 278 280 281 281 280 280 280 279 278 277 276 277 277 276 273 271 271 271 272 274 276 278 280
267 270 271 271 270 272 272 271 272 271 272 271 271 274 276 277 278 278 277 277 278 279 280 281 280 280 280 281 277 276 276 275 274 274 273 272 272 270 271 274 276 277 279
Height
5908 5907 5906 5905 5905 5904 5904 5903 5902 5902 5902 5901 5901 5900 5900 5900 5899 5898 5897 5897 5896 5896 5895 5894 5893 5893 5892 5891 5891 5890 5889 5888 5887 5886 5885 5884 5882 5881 5880 5879 5878 5877 5876
5907 5906 5906 5905 5904 5903 5903 5902 5902 5902 5901 5900 5900 5900 5899 5899 5898 5897 5897 5896 5896 5895 5894 5893 5892 5892 5891 5891 5890 5889 5888 5887 5886 5885 5884 5883 5883 5881 5879 5878 5877 5876 5875
5906 5905 5905 5904 5903 5902 5902 5902 5901 5900 5900 5900 5899 5899 5898 5898 5897 5896 5896 5895 5894 5894 5893 5892 5891 5891 5890 5890 5889 5888 5887 5886 5885 5884 5883 5882 5881 5880 5879 5877 5876 5875 5874
5904 5904 5903 5903 5902 5901 5900 5900 5900 5899 5899 5898 5898 5897 5897 5896 5895 5895 5894 5893 5893 5892 5891 5891 5890 5890 5889 5888 5888 5887 5886 5885 5884 5883 5882 5881 5880 5879 5877 5876 5875 5874 5872
5902 5901 5901 5901 5900 5899 5899 5898 5898 5897 5897 5896 5896 5895 5895 5894 5893 5893 5892 5892 5891 5891 5890 5889 5889 5888 5887 5887 5886 5885 5884 5884 5883 5882 5880 5879 5878 5877 5876 5875 5873 5872 5871
5900 5899 5899 5898 5898 5897 5897 5896 5896 5895 5895 5895 5894 5893 5893 5892 5891 5891 5890 5889 5889 5889 5888 5887 5887 5886 5886 5885 5885 5884 5883 5882 5881 5880 5879 5878 5877 5875 5874 5873 5871 5870 5869
5897 5897 5896 5896 5895 5895 5894 5894 5893 5893 5892 5892 5891 5891 5890 5889 5889 5888 5888 5887 5886 5886 5885 5885 5885 5884 5884 5883 5882 5882 5881 5880 5879 5878 5877 5876 5874 5873 5872 5871 5869 5868 5867
5894 5894 5893 5893 5892 5892 5891 5891 5890 5890 5890 5889 5889 5888 5887 5887 5887 5886 5885 5885 5884 5883 5883 5882 5882 5881 5881 5880 5879 5879 5878 5877 5876 5875 5874 5873 5872 5871 5870 5868 5867 5866 5865
5891 5890 5890 5889 5889 5888 5888 5887 5887 5887 5886 5886 5885 5884 5884 5884 5883 5883 5882 5882 5881 5881 5880 5879 5879 5878 5877 5877 5876 5875 5875 5874 5873 5872 5871 5870 5869 5868 5867 5865 5864 5863 5862
5887 5886 5886 5885 5885 5885 5884 5884 5884 5883 5883 5882 5881 5881 5880 5880 5880 5879 5879 5879 5878 5877 5877 5876 5875 5875 5874 5873 5872 5872 5871 5870 5870 5868 5867 5866 5866 5864 5863 5862 5861 5859 5858
5882 5882 5882 5881 5881 5880 5880 5880 5879 5879 5879 5878 5877 5876 5876 5875 5875 5875 5875 5875 5874 5873 5873 5872 5872 5871 5870 5869 5868 5867 5867 5866 5865 5864 5863 5862 5861 5860 5859 5858 5857 5855 5854
5878 5877 5877 5877 5876 5876 5875 5875 5874 5874 5874 5873 5873 5872 5871 5871 5871 5870 5870 5870 5869 5869 5868 5868 5867 5866 5866 5865 5864 5863 5862 5861 5860 5859 5858 5858 5857 5856 5855 5854 5853 5851 5849
5873 5873 5872 5872 5871 5871 5870 5870 5869 5869 5869 5868 5868 5867 5867 5866 5866 5865 5865 5865 5864 5864 5863 5863 5862 5861 5860 5860 5859 5858 5857 5855 5854 5853 5853 5852 5851 5850 5850 5849 5848 5846 5845
5868 5868 5868 5867 5867 5866 5866 5865 5864 5864 5863 5863 5863 5862 5862 5861 5861 5860 5860 5860 5859 5859 5858 5857 5856 5855 5854 5853 5853 5852 5851 5850 5849 5848 5847 5846 5845 5845 5844 5843 5842 5841 5840
5863 5863 5863 5862 5862 5861 5860 5860 5859 5858 5858 5858 5857 5857 5857 5856 5856 5855 5854 5854 5853 5853 5852 5851 5850 5849 5848 5847 5846 5845 5845 5844 5843 5842 5841 5840 5839 5838 5837 5837 5836 5835 5834
5857 5857 5856 5856 5856 5855 5854 5854 5853 5852 5852 5852 5851 5851 5851 5850 5850 5849 5849 5848 5847 5846 5846 5844 5843 5842 5841 5840 5839 5839 5838 5837 5836 5835 5834 5833 5833 5832 5831 5830 5829 5828 5827
5850 5850 5850 5849 5849 5849 5848 5848 5847 5847 5846 5845 5845 5845 5844 5844 5843 5843 5842 5842 5841 5840 5839 5838 5837 5835 5834 5833 5832 5831 5830 5830 5829 5828 5827 5826 5826 5825 5824 5823 5822 5821 5820
5843 5843 5843 5842 5842 5842 5841 5841 5840 5840 5839 5839 5838 5838 5837 5836 5836 5835 5835 5835 5834 5833 5832 5831 5829 5828 5827 5826 5824 5823 5822 5822 5821 5821 5820 5819 5818 5817 5817 5815 5814 5813 5812
5836 5836 5835 5835 5835 5834 5834 5834 5833 5832 5832 5831 5831 5831 5830 5829 5829 5828 5827 5827 5826 5825 5824 5823 5821 5820 5819 5818 5817 5815 5814 5814 5814 5813 5812 5811 5811 5810 5809 5808 5807 5805 5805
5828 5828 5827 5827 5827 5827 5826 5826 5825 5825 5824 5824 5823 5823 5822 5822 5821 5820 5820 5819 5818 5817 5816 5815 5813 5812 5810 5810 5809 5807 5806 5806 5805 5805 5804 5803 5803 5802 5801 5800 5799 5798 5797
5820 5820 5820 5819 5819 5819 5818 5818 5818 5817 5817 5816 5816 5815 5814 5814 5813 5812 5812 5811 5810 5809 5808 5807 5805 5803 5802 5801 5800 5799 5798 5797 5796 5795 5795 5795 5794 5793 5793 5792 5791 5790 5789
5812 5812 5812 5812 5811 5811 5810 5810 5809 5808 5808 5808 5808 5807 5807 5806 5805 5805 5804 5803 5801 5800 5799 5798 5796 5795 5794 5793 5792 5791 5789 5788 5787 5787 5786 5786 5786 5785 5784 5784 5783 5782 5780
5804 5804 5804 5804 5803 5802 5802 5801 5801 5800 5800 5800 5799 5799 5798 5797 5797 5796 5795 5794 5793 5792 5790 5789 5788 5786 5785 5784 5783 5782 5781 5779 5778 5778 5777 5777 5777 5777 5776 5775 5775 5773 5772
5796 5796 5796 5795 5795 5794 5793 5793 5792 5792 5791 5791 5790 5790 5789 5788 5788 5787 5786 5786 5785 5783 5781 5780 5779 5777 5776 5775 5774 5773 5772 5771 5770 5769 5769 5768 5768 5768 5768 5767 5766 5765 5764
5788 5787 5787 5787 5786 5785 5785 5784 5783 5783 5782 5782 5781 5781 5780 5779 5778 5778 5777 5776 5776 5774 5773 5771 5770 5768 5767 5766 5765 5764 5763 5762 5762 5761 5760 5760 5760 5760 5760 5759 5758 5757 5756
5779 5779 5778 5778 5777 5777 5776 5775 5774 5773 5773 5772 5772 5772 5771 5770 5770 5769 5768 5767 5766 5765 5764 5762 5761 5759 5759 5757 5756 5756 5755 5754 5753 5752 5751 5751 5751 5751 5751 5750 5749 5748 5747